Regional Weather Roundup
Issued by NWS Upton, NY

Current Version | Previous Version | Text Only | Print | Product List | Glossary On
Versions: 1 2 3 4 5 6 7 8 9 10 11 12 13 14 15 16 17 18 19 20 21 22 23 24 25 26 27 28 29 30 31 32 33 34 35 36 37 38 39 40 41 42 43 44 45 46 47 48 49 50
000 ASUS41 KOKX 252305 RWROKX REGIONAL WEATHER ROUNDUP NATIONAL WEATHER SERVICE NEW YORK NY 700 PM EDT WED MAY 25 2016 NOTE: "FAIR" INDICATES FEW OR NO CLOUDS BELOW 12,000 FEET WITH NO SIGNIFICANT WEATHER AND/OR OBSTRUCTIONS TO VISIBILITY. NYZ071-072-176-178-NJZ106-104-260000- NEW YORK CITY METRO AREA CITY SKY/WX TMP DP RH WIND PRES REMARKS CENTRAL PARK SUNNY 83 43 24 VRB5 30.05S LAGUARDIA APRT MOSUNNY 89 47 23 W9 30.01F KENNEDY INTL MOSUNNY 75 53 46 S10 30.04S NEWARK/LIBERTY PTSUNNY 86 42 21 SW14 30.03R BRNX BOT. GARD N/A 86 41 20 W13 30.02F TETERBORO SUNNY 87 39 18 SW14 30.00S $$ NYZ177-179-078>081-260000- LONG ISLAND NEW YORK CITY SKY/WX TMP DP RH WIND PRES REMARKS FARMINGDALE SUNNY 78 49 35 SW8 30.04S ISLIP MOSUNNY 76 51 41 SW12 30.03S SHIRLEY SUNNY 75 51 43 SW7 30.04F RIVERHEAD N/A 79 54 41 CALM 30.02S WESTHAMPTON NOT AVBL EAST HAMPTON FAIR 76 52 43 SW8 30.02S MONTAUK POINT N/A 72 55 55 S6 30.03S $$ NYZ052-065-067-260000- HUDSON VALLEY CITY SKY/WX TMP DP RH WIND PRES REMARKS WHITE PLAINS SUNNY 84 42 22 W5 30.02F NEWBURGH PTSUNNY 82 52 34 NW9 30.02S MONTGOMERY CLOUDY 85 55 35 SW3 30.00S POUGHKEEPSIE CLOUDY 85 52 32 CALM 30.00R ALBANY MOSUNNY 82 51 34 NW14 30.00R $$ NJZ001-105-106-008-010-013-015-019>022-104-260000- NEW JERSEY CITY SKY/WX TMP DP RH WIND PRES REMARKS NEWARK/LIBERTY PTSUNNY 86 42 21 SW14 30.03R TETERBORO SUNNY 87 39 18 SW14 30.00S CALDWELL SUNNY 86 44 23 VRB5 30.03R MORRISTOWN MOSUNNY 84 46 26 W12 30.03S SOMERVILLE SUNNY 84 46 26 VRB5 30.02S SUSSEX SUNNY 86 47 25 W3 30.03S ANDOVER N/A 83 48 29 CALM 30.04S TRENTON SUNNY 85 46 25 W8 30.05S MILLVILLE SUNNY 81 51 35 SW5 30.09S ATLANTIC CITY MOSUNNY 83 49 30 SW10 30.08S WRIGHTSTOWN NOT AVBL TOMS RIVER SUNNY 84 39 20 W8 30.07R BELMAR SUNNY 85 44 23 SW7 30.07S $$ PAZ047>061-062-071-260000- EASTERN PENNSYLVANIA CITY SKY/WX TMP DP RH WIND PRES REMARKS PHILADELPHIA PTSUNNY 84 47 27 SW13 30.07S ALLENTOWN SUNNY 83 47 28 SW15 30.05S SCRANTON SUNNY 83 48 29 SW12 30.05S $$ CTZ002-004>006-009-010-012-RIZ004-006-007-MAZ004-011-015-260000- SOUTHERN NEW ENGLAND IN CT CITY SKY/WX TMP DP RH WIND PRES REMARKS BRADLEY INTL CLOUDY 83 49 30 W15G26 30.00R HARTFORD CLOUDY 88 45 22 W5 29.99R DANBURY PTSUNNY 83 47 28 SW3 30.03R WTRBRY/OXFORD MOSUNNY 82 43 24 CALM 30.05S BRIDGEPORT SUNNY 77 51 40 SW7 30.00F MERIDEN MOSUNNY 85 48 27 CALM 30.00R NEW HAVEN SUNNY 72 51 47 VRB3 30.00F CHESTER FAIR 81 45 28 SW7 30.02S GROTON SUNNY 78 48 34 W13 30.00R WILLIMANTIC MOSUNNY 86 45 23 W5 29.99R IN RI CITY SKY/WX TMP DP RH WIND PRES REMARKS PROVIDENCE MOSUNNY 86 42 21 NW10 29.97R BLOCK ISLAND SUNNY 67 52 58 SW15 30.02S WESTERLY SUNNY 74 48 39 SW8 30.01R IN MA CITY SKY/WX TMP DP RH WIND PRES REMARKS BOSTON MOSUNNY 86 42 21 W9 29.94R WORCESTER CLOUDY 76 49 38 NW15 30.02R WESTFIELD CLOUDY 82 51 34 W7 30.00R PROVINCETOWN SUNNY 69 55 60 S12 29.96R NANTUCKET CLEAR 62 52 69 SW12 30.00S $$ ANZ330-335-338-340-345-350-353-355-260000- COASTAL MARINE OBSERVATIONS STATION/POSITION TIME SKY/WX TEMP WIND PRES VSBY WAVE AIR SEA DIR/SP/G HT/PER (UTC) (F) (DEG/KT/KT) (MB) (MI) (FT/S) NY HARB ENTRANCE 2150 66 61 190/ 8/ 10 1017.2 2/ 8 20S FIRE ISLAND 2150 64 58 220/ 12/ 14 1017.3 3/ 9 GREAT SOUTH BAY 2230 67 66 220/ 12/ 16 N/A 23 SSW MONTAUK P 2250 61 55 240/ 14/ 16 1016.5 3/ 7 15 E BARNEGAT LI 2222 57 N/A 3/ 8 HUDSON CANYON 2150 60 56 1018.5 3/ 6 KINGS POINT 2206 83 61 1016.3 EXECUTION ROCKS NOT AVBL CENTRAL LI SOUND 2200 69 230/ 10/ 12 N/A 1/ 2 EASTERN LI SOUND 2200 63 53 240/ 8/ 10 N/A ROBBINS REEF 2200 250/ 14/ 18 1016.1 $$ >>>>>>>>>>>>>>>>>>>>>>>>>>>> KEY <<<<<<<<<<<<<<<<<<<<<<<<<<< > < > SKY/WX - SKY CONDITION/PRESENT WEATHER < > TMP - TEMPERATURE IN FAHRENHEIT < > DP - DEWPOINT IN FAHRENHEIT < > RH - RELATIVE HUMIDITY IN PERCENT < > WIND - DIRECTION AND SPEED IN MPH < > PRES - MEAN SEA LEVEL PRESSURE IN INCHES OF HG < > WCI - WIND CHILL INDEX < > VSB - VISIBILITY IN MILES < > HX - HEAT INDEX < > TC - TEMPERATURE IN CELSIUS < > VRB - VARIABLE WIND DIRECTION < > < >>>>>>>>>>>>>>>>>>>>>>>>>>>> KEY <<<<<<<<<<<<<<<<<<<<<<<<<<<

USA.gov is the U.S. government's official web portal to all federal, state and local government web resources and services.